Weather History for Beaufort, NC

Change the Weather History Date:

Sunday, January 13, 2013

  Actual Average Record
Temperature  
Mean Temperature 60 °F -  
Max Temperature 66 °F 55 °F 73 °F (2005)
Min Temperature 55 °F 34 °F 8 °F (1981)
Degree Days  
Heating Degree Days 4    
Growing Degree Days 10 (Base 50)    
Moisture  
Dew Point 59 °F    
Average Humidity 93    
Maximum Humidity 100    
Minimum Humidity 79    
Precipitation  
Precipitation 0.01 in - - ()
Sea Level Pressure  
Sea Level Pressure 30.15 in    
Wind  
Wind Speed 4 mph (South)    
Max Wind Speed 10 mph    
Max Gust Speed -    
Visibility 6 miles    
Events Fog    
Averages and records for this station are not official NWS values.
T = Trace of Precipitation, MM = Missing Value Source: NWS Daily Summary

Daily Weather History Graph

Daily Weather History Graph

Search for Another Location

Airport:

Trip Planner

Search our weather history database for the weather conditions in past years. The results will help you decide how hot, cold, wet, or windy it might be!

Date:

Astronomy

Jan. 13, 2013 Rise Set
Actual Time 7:13 AM EST 5:17 PM EST
Civil Twilight 6:46 AM EST 5:44 PM EST
Nautical Twilight 6:15 AM EST 6:15 PM EST
Astronomical Twilight 5:45 AM EST 6:46 PM EST
Moon 8:17 AM EST (1/13) 7:45 PM EST (1/13)
Length of Visible Light 10h 58m
Length of Day
10h 03m
Waxing Crescent, 5% of the Moon is Illuminated
Jan 13
Waxing Crescent
Jan 18
First Quarter
Jan 26
Full
Feb 3
Last Quarter
Feb 10
New

Hourly Weather History & Observations

Time (EST) Temp. Dew Point Humidity Pressure Visibility Wind Dir Wind Speed Gust Speed Precip Events Conditions
12:58 AM 59.0 °F 57.9 °F 96% 30.13 in 0.5 mi ENE 6.9 mph - N/A Fog Fog
1:12 AM 59.0 °F 57.2 °F 94% 30.13 in 1.0 mi ENE 4.6 mph - N/A   Mist
1:58 AM 59.0 °F 59.0 °F 100% 30.14 in 0.2 mi Calm Calm - N/A Fog Fog
2:58 AM 59.0 °F 57.9 °F 96% 30.14 in 0.2 mi Calm Calm - N/A Fog Fog
4:58 AM 59.0 °F 59.0 °F 100% 30.13 in 0.2 mi NE 3.5 mph - N/A Fog Fog
5:58 AM 57.9 °F 57.9 °F 100% 30.14 in 0.2 mi ENE 3.5 mph - N/A Fog Fog
6:41 AM 57.2 °F 55.4 °F 94% 30.14 in 1.2 mi Calm Calm - N/A   Overcast
6:58 AM 55.9 °F 55.9 °F 100% 30.14 in 1.8 mi Calm Calm - N/A   Overcast
7:07 AM 55.4 °F 55.4 °F 100% 30.14 in 0.8 mi Calm Calm - N/A   Mist
7:58 AM 55.9 °F 55.9 °F 100% 30.16 in 0.2 mi Calm Calm - N/A Fog Fog
8:58 AM 57.9 °F 57.9 °F 100% 30.18 in 0.2 mi Calm Calm - N/A Fog Fog
9:35 AM 59.0 °F 59.0 °F 100% 30.18 in 1.2 mi Calm Calm - N/A   Overcast
9:40 AM 59.0 °F 59.0 °F 100% 30.18 in 3.0 mi Calm Calm - N/A   Mostly Cloudy
9:55 AM 62.6 °F 60.8 °F 94% 30.18 in 9.0 mi SW 3.5 mph - N/A   Scattered Clouds
9:58 AM 62.1 °F 61.0 °F 96% 30.18 in 9.0 mi SSW 3.5 mph - N/A   Partly Cloudy
10:58 AM 66.0 °F 61.0 °F 84% 30.17 in 10.0 mi SSW 4.6 mph - N/A   Clear
11:58 AM 66.9 °F 60.1 °F 79% 30.15 in 10.0 mi SSW 5.8 mph - N/A   Clear
1:58 PM 66.9 °F 60.1 °F 79% 30.12 in 10.0 mi SSW 5.8 mph - N/A   Clear
2:58 PM 66.0 °F 60.1 °F 81% 30.12 in 10.0 mi South 6.9 mph - N/A   Clear
3:58 PM 64.0 °F 59.0 °F 84% 30.14 in 10.0 mi South 5.8 mph - N/A   Clear
4:58 PM 62.1 °F 57.9 °F 86% 30.15 in 10.0 mi South 5.8 mph - N/A   Clear
5:58 PM 63.0 °F 60.1 °F 90% 30.15 in 10.0 mi South 8.1 mph - N/A   Clear
6:58 PM 62.1 °F 59.0 °F 90% 30.14 in 10.0 mi South 10.4 mph - N/A   Clear
7:58 PM 63.0 °F 59.0 °F 87% 30.13 in 10.0 mi South 10.4 mph - N/A   Partly Cloudy
8:58 PM 64.0 °F 61.0 °F 90% 30.12 in 10.0 mi South 9.2 mph - N/A   Mostly Cloudy
9:58 PM 64.0 °F 62.1 °F 93% 30.13 in 10.0 mi South 8.1 mph - N/A   Mostly Cloudy
10:58 PM 63.0 °F 61.0 °F 93% 30.16 in 10.0 mi SSW 5.8 mph - N/A   Scattered Clouds
11:48 PM 64.4 °F 60.8 °F 88% 30.16 in 10.0 mi SSW 6.9 mph - N/A   Mostly Cloudy
11:58 PM 62.1 °F 60.1 °F 93% 30.16 in 10.0 mi SSW 6.9 mph - N/A   Scattered Clouds